Regional Weather Roundup
Issued by NWS Charleston, SC

Current Version | Previous Version | Graphics & Text | Print | Product List | Glossary On
Versions: 1 2 3 4 5 6 7 8 9 10 11 12 13 14 15 16 17 18 19 20 21 22 23 24 25 26 27 28 29 30 31 32 33 34 35 36 37 38 39 40 41 42 43 44 45 46 47 48 49 50
000 ASUS42 KCHS 260127 RWRCHS Regional Weather Roundup National Weather Service Charleston SC 900 PM EDT FRI MAY 25 2018 NOTE: "fair" indicates few or no clouds below 12,000 feet with no significant weather and/or obstructions to visibility. Not all stations are quality controlled. Use data with caution, especially dewpoint observations. SCZ027-030-031-034>040-042>050-260200- ...Southeast South Carolina... CITY SKY/WX TMP DP RH WIND PRES REMARKS N Charleston MOCLDY 76 72 87 S7 30.01S Waterfront Prk N/A 78 74 87 S7 29.85F Mount Pleasant FAIR 75 73 94 CALM 30.02R Johns Island FAIR 77 73 88 S7 30.02R Pinopolis N/A 75 72 88 VRB2 29.94S Moncks Corner FAIR 73 70 88 CALM 30.02R Summerville FAIR 73 70 88 CALM 30.03R Beaufort MCAS MOCLDY 79 75 87 SE7 30.01R Beaufort Arpt FAIR 77 70 78 S8 30.01R Hilton Head Is FAIR 77 70 78 S12 30.02R Walterboro FAIR 72 70 94 CALM 30.03R Allendale FAIR 75 73 94 CALM 30.00S ...Southern Midlands and Pee Dee... CITY SKY/WX TMP DP RH WIND PRES REMARKS Georgetown FAIR 73 72 94 CALM 30.03S Kingstree FAIR 73 72 94 SE5 30.01S Orangeburg FAIR 75 69 81 S5 30.01R Barnwell FAIR 75 72 88 S5 30.01R Aiken FAIR 72 72 100 SE3 30.04S Manning FAIR 68 66 94 CALM 30.02R Columbia MOCLDY 77 72 84 E5 30.00R Sumter CLOUDY 74 71 92 CALM 29.99R Florence FAIR 75 71 87 S5 30.01S Myrtle Beach FAIR 76 72 87 S8 30.03F N Myrtle Beach FAIR 77 72 84 S7 30.02S $$ GAZ063-065-086>088-099>101-113>116-118-119-134>141-150-260200- ...Southeast Georgia... CITY SKY/WX TMP DP RH WIND PRES REMARKS Savannah Arpt MOCLDY 77 71 82 S7 30.01R Hunter AAF FAIR 77 71 81 S8 29.98R Fort Stewart FAIR 76 69 80 SE5 29.98R Statesboro FAIR 76 69 80 CALM 30.00S Sylvania FAIR 76 71 84 CALM 30.01S Claxton FAIR 78 72 81 E5 30.00S ...CSRA, Central and far Southeast Georgia... CITY SKY/WX TMP DP RH WIND PRES REMARKS Thomson LGT RAIN 71 70 96 SW5 30.07R Augusta-Bush RAIN 74 73 97 CALM 29.99S FOG Augusta-Daniel LGT RAIN 75 74 96 S3 30.01R FOG Swainsboro FAIR 77 73 88 SE5 30.02R Vidalia FAIR 77 70 78 CALM 30.00R Eastman FAIR 78 64 63 SE5 30.00R Hazlehurst N/A 78 71 78 CALM 29.99R Alma FAIR 77 70 79 SE5 29.98R Waycross FAIR 76 73 91 SE3 29.98S Jesup FAIR 77 70 78 CALM 30.00S Baxley FAIR 73 73 100 CALM 29.99R Brunswick FAIR 77 70 78 SE10 30.01R Saint Simons MOCLDY 79 73 82 S10 30.00R $$ SCZ027-028-034-036>038-045-046-048>050-GAZ119-141-260200- ...Lake and Supplemental Coastal Observations... STATION/POSITION TIME TEMP WIND PRES WAVE SWELL AIR SEA DIR/SP/G HT/PER HT/PER/DIR (UTC) (F) (DEG/KT/KT) (MB) (FT/S) (FT/S/D) Winyah Bay 0045 77 180/ 6 1017.0S Lake Murray 0020 72 CALM / 1 1015.2 ACE Basin NERRS 0045 78 150/ 2 1016.0S Fort Pulaski 0100 77 80 170/ 6/ 10 1016.5 Sapelo Island 0100 77 160/ 7 1016.0 $$ ANZ835-935-AMZ111-154-330-350-352-354-370-450-454-472-260200- ...C-MAN and Buoy Observations... STATION/POSITION TIME TEMP WIND PRES WAVE SWELL AIR SEA DIR/SP/G HT/PER HT/PER/DIR (UTC) (F) (DEG/KT/KT) (MB) (FT/S) (FT/S/D) Buoy 41004 0100 77 180/ 8/ 10 1016.5 Buoy 41008 0050 77 77 150/ 12/ 14 1015.6R 3/10 2/120/10 Folly Beach CMAN 0100 77 170/ 11/ 12 1016.9S Capers Nearshore 0108 77 78 180/ 8/ 10 1017.2S Fripp Nearshore 0108 77 79 180/ 12/ 16 1015.9R STATION/POSITION TIME TEMP WIND PRES WAVE SWELL AIR SEA DIR/SP/G HT/PER HT/PER/DIR (UTC) (F) (DEG/KT/KT) (MB) (FT/S) (FT/S/D) 5E St. Marys GA 0100 78 N/A 3/ 4 Frying Pan Buoy 0100 78 78 190/ 10/ 12 1016.9 Buoy 41025 0110 77 78 200/ 14/ 17 1017.4 Cape Lookout NC 0100 190/ 7/ 8 1017.3F Buoy 41002 0110 79 210/ 6/ 8 1017.9 Buoy 41010 0110 78 78 140/ 12/ 14 1017.1 St Augustine FL 0100 78 81 160/ 16/ 17 1015.4S $$

USA.gov is the U.S. government's official web portal to all federal, state and local government web resources and services.